Martha's Vineyard, MA

7:23 PM EDT on September 22, 2017 (GMT -0400)
Martha's Vineyard

Weather History for KMVY - May, 2014

Change the Weather History Date:

Sunday, May 11, 2014

  Actual Average Record
Temperature  
Mean Temperature 65 °F -  
Max Temperature 73 °F 63 °F 87 °F (1979)
Min Temperature 55 °F 46 °F 35 °F (1962)
Growing Degree Days 15 (Base 50)    
Moisture  
Dew Point 47 °F    
Average Humidity 57    
Maximum Humidity 90    
Minimum Humidity 33    
Precipitation  
Precipitation 0.10 in - - ()
Sea Level Pressure  
Sea Level Pressure 29.94 in    
Wind  
Wind Speed 11 mph (WSW)    
Max Wind Speed 17 mph    
Max Gust Speed 29 mph    
Visibility 10 miles    
Events Rain    
Averages and records for this station are not official NWS values.
T = Trace of Precipitation, MM = Missing Value Source: NWS Daily Summary

Daily Weather History Graph

Daily Weather History Graph

Search for Another Location

Airport or City:

Trip Planner

Search our weather history database for the weather conditions in past years. The results will help you decide how hot, cold, wet, or windy it might be!

Date:

Astronomy

May. 11, 2014 Rise Set
Actual Time 5:27 AM EDT 7:50 PM EDT
Civil Twilight 4:56 AM EDT 8:21 PM EDT
Nautical Twilight 4:18 AM EDT 9:00 PM EDT
Astronomical Twilight 3:35 AM EDT 9:43 PM EDT
Moon 4:41 PM EDT (5/11) 3:33 AM EDT (5/11)
Length of Visible Light 15h 25m
Length of Day
14h 22m
Waxing Gibbous, 89% of the Moon is Illuminated
May 11
Waxing Gibbous
May 14
Full
May 21
Last Quarter
May 28
New
Jun 5
First Quarter

Hourly Weather History & Observations

Time (EDT) Temp. Dew Point Humidity Pressure Visibility Wind Dir Wind Speed Gust Speed Precip Events Conditions
12:53 AM 57.9 °F 52.0 °F 81% 29.84 in 10.0 mi SW 12.7 mph - N/A   Mostly Cloudy
1:53 AM 64.9 °F 55.0 °F 70% 29.83 in 10.0 mi WSW 11.5 mph 21.9 mph 0.00 in   Overcast
2:53 AM 61.0 °F 54.0 °F 78% 29.83 in 10.0 mi SW 9.2 mph - 0.00 in Rain Light Rain
3:53 AM 60.1 °F 55.0 °F 83% 29.82 in 10.0 mi WNW 10.4 mph 19.6 mph 0.02 in   Overcast
4:53 AM 59.0 °F 55.0 °F 87% 29.85 in 8.0 mi WNW 11.5 mph 19.6 mph 0.01 in Rain Light Rain
5:53 AM 59.0 °F 55.9 °F 90% 29.88 in 10.0 mi NW 8.1 mph - 0.07 in Rain Light Rain
6:53 AM 57.9 °F 48.9 °F 72% 29.91 in 10.0 mi WNW 4.6 mph - 0.00 in   Scattered Clouds
7:53 AM 61.0 °F 53.1 °F 75% 29.94 in 10.0 mi West 6.9 mph - N/A   Clear
8:53 AM 66.0 °F 48.9 °F 54% 29.96 in 10.0 mi WNW 9.2 mph - N/A   Clear
9:53 AM 68.0 °F 46.9 °F 47% 29.98 in 10.0 mi West 11.5 mph - N/A   Clear
10:53 AM 71.1 °F 44.1 °F 38% 29.98 in 10.0 mi West 10.4 mph 20.7 mph N/A   Clear
11:53 AM 72.0 °F 43.0 °F 35% 29.97 in 10.0 mi West 11.5 mph 19.6 mph N/A   Clear
12:53 PM 73.0 °F 44.1 °F 35% 29.97 in 10.0 mi SW 11.5 mph 21.9 mph N/A   Clear
2:53 PM 73.0 °F 42.1 °F 33% 29.96 in 10.0 mi SW 16.1 mph 26.5 mph N/A   Clear
3:53 PM 72.0 °F 45.0 °F 38% 29.96 in 10.0 mi WSW 16.1 mph 28.8 mph N/A   Clear
4:53 PM 69.1 °F 44.1 °F 40% 29.96 in 10.0 mi SSW 17.3 mph 24.2 mph N/A   Clear
5:53 PM 70.0 °F 42.1 °F 36% 29.96 in 10.0 mi WSW 15.0 mph 23.0 mph N/A   Clear
6:53 PM 69.1 °F 41.0 °F 36% 29.97 in 10.0 mi WSW 11.5 mph - N/A   Clear
7:53 PM 66.0 °F 41.0 °F 40% 29.99 in 10.0 mi SW 8.1 mph - N/A   Clear
8:53 PM 60.1 °F 44.1 °F 55% 30.02 in 10.0 mi SSW 5.8 mph - N/A   Clear
9:53 PM 59.0 °F 44.1 °F 58% 30.04 in 10.0 mi WSW 6.9 mph - N/A   Clear
10:53 PM 57.9 °F 45.0 °F 62% 30.04 in 10.0 mi SW 5.8 mph - N/A   Clear
11:53 PM 55.9 °F 46.0 °F 69% 30.04 in 10.0 mi SW 5.8 mph - N/A   Clear